| time (UTC) | temp F | wind direction | speed MPH | gust MPH | rain 1hr in | rain 24hr in | rain mn in | humidity % | barometer mb |
| 20260504130638 | 58 | 173 | 1.0 | 1.0 | 0.00 | 0.00 | 0.00 | 70 | 1013.6 |
| 20260504130134 | 57 | 180 | 1.0 | 2.0 | 0.00 | 0.00 | 0.00 | 69 | 1013.5 |
| 20260504110526 | 48 | 174 | 0.0 | 0.0 | 0.00 | 0.00 | 0.00 | 87 | 1012.5 |
| 20260504100442 | 46 | 174 | 0.0 | 0.0 | 0.00 | 0.00 | 0.00 | 90 | 1012.4 |
| 20260504081835 | 48 | 174 | 0.0 | 0.0 | 0.00 | 0.00 | 0.00 | 85 | 1012.1 |
| 20260504081332 | 48 | 174 | 0.0 | 0.0 | 0.00 | 0.00 | 0.00 | 85 | 1012.3 |
| 20260504080827 | 49 | 174 | 0.0 | 0.0 | 0.00 | 0.00 | 0.00 | 84 | 1012.4 |
| 20260504080325 | 49 | 174 | 0.0 | 0.0 | 0.00 | 0.00 | 0.00 | 84 | 1012.3 |
| 20260504070252 | 48 | 169 | 0.0 | 0.0 | 0.00 | 0.00 | 0.00 | 86 | 1013.0 |
| 20260504060213 | 47 | 167 | 0.0 | 0.0 | 0.00 | 0.00 | 0.00 | 88 | 1013.1 |
| 20260504050640 | 49 | 167 | 0.0 | 0.0 | 0.00 | 0.00 | 0.00 | 86 | 1013.5 |
| 20260504050137 | 49 | 167 | 0.0 | 0.0 | 0.00 | 0.00 | 0.00 | 86 | 1013.4 |
| 20260504045635 | 49 | 169 | 0.0 | 0.0 | 0.00 | 0.00 | 0.00 | 85 | 1013.6 |
| 20260504045135 | 49 | 167 | 0.0 | 0.0 | 0.00 | 0.00 | 0.00 | 84 | 1013.6 |
| 20260504044633 | 50 | 167 | 0.0 | 0.0 | 0.00 | 0.00 | 0.00 | 84 | 1013.6 |
| 20260504044129 | 50 | 167 | 0.0 | 0.0 | 0.00 | 0.00 | 0.00 | 83 | 1013.8 |
| 20260504043626 | 50 | 167 | 0.0 | 0.0 | 0.00 | 0.00 | 0.00 | 82 | 1013.5 |
| 20260504043124 | 51 | 169 | 0.0 | 0.0 | 0.00 | 0.00 | 0.00 | 81 | 1013.7 |
| 20260504042621 | 52 | 169 | 0.0 | 0.0 | 0.00 | 0.00 | 0.00 | 80 | 1013.7 |
| 20260504042117 | 52 | 172 | 0.0 | 0.0 | 0.00 | 0.00 | 0.00 | 79 | 1013.8 |
| 20260504041613 | 53 | 172 | 0.0 | 0.0 | 0.00 | 0.00 | 0.00 | 78 | 1013.8 |
| 20260504041110 | 53 | 182 | 0.0 | 0.0 | 0.00 | 0.00 | 0.00 | 78 | 1013.3 |
| 20260504040607 | 53 | 176 | 0.0 | 0.0 | 0.00 | 0.00 | 0.00 | 78 | 1013.3 |
| 20260504040103 | 51 | 177 | 0.0 | 0.0 | 0.00 | 0.00 | 0.00 | 79 | 1013.5 |
| 20260504035600 | 51 | 186 | 0.0 | 0.0 | 0.00 | 0.00 | 0.00 | 81 | 1013.6 |
| 20260504035056 | 50 | 192 | 0.0 | 0.0 | 0.00 | 0.00 | 0.00 | 82 | 1013.5 |
| 20260504034555 | 50 | 192 | 0.0 | 0.0 | 0.00 | 0.00 | 0.00 | 82 | 1013.5 |
| 20260504034051 | 50 | 192 | 0.0 | 0.0 | 0.00 | 0.00 | 0.00 | 82 | 1013.8 |
| 20260504033549 | 49 | 195 | 0.0 | 0.0 | 0.00 | 0.00 | 0.00 | 82 | 1013.7 |
| 20260504033046 | 49 | 195 | 0.0 | 0.0 | 0.00 | 0.00 | 0.00 | 82 | 1013.8 |
| 20260504032543 | 50 | 195 | 0.0 | 0.0 | 0.00 | 0.00 | 0.00 | 81 | 1013.9 |
| 20260504032040 | 49 | 195 | 0.0 | 0.0 | 0.00 | 0.00 | 0.00 | 79 | 1013.9 |
| 20260504031537 | 50 | 195 | 0.0 | 0.0 | 0.00 | 0.00 | 0.00 | 79 | 1014.0 |
| 20260504031033 | 50 | 195 | 0.0 | 0.0 | 0.00 | 0.00 | 0.00 | 79 | 1014.1 |
| 20260504030531 | 50 | 195 | 0.0 | 0.0 | 0.00 | 0.00 | 0.00 | 78 | 1014.2 |
| 20260504030027 | 50 | 195 | 0.0 | 0.0 | 0.00 | 0.00 | 0.00 | 78 | 1014.4 |
| 20260504025524 | 51 | 195 | 0.0 | 0.0 | 0.00 | 0.00 | 0.00 | 77 | 1014.2 |
| 20260504025020 | 51 | 195 | 0.0 | 0.0 | 0.00 | 0.00 | 0.00 | 76 | 1014.4 |
| 20260504024518 | 51 | 195 | 0.0 | 0.0 | 0.00 | 0.00 | 0.00 | 75 | 1014.3 |
| 20260504024015 | 51 | 195 | 0.0 | 0.0 | 0.00 | 0.00 | 0.00 | 76 | 1014.2 |
| 20260504023511 | 52 | 195 | 0.0 | 0.0 | 0.00 | 0.00 | 0.00 | 74 | 1014.1 |
| 20260504023007 | 52 | 195 | 0.0 | 0.0 | 0.00 | 0.00 | 0.00 | 74 | 1014.2 |
| 20260504022503 | 52 | 195 | 0.0 | 0.0 | 0.00 | 0.00 | 0.00 | 74 | 1013.7 |
| 20260504022000 | 52 | 195 | 0.0 | 0.0 | 0.00 | 0.00 | 0.00 | 72 | 1014.0 |
| 20260504021457 | 53 | 195 | 0.0 | 0.0 | 0.00 | 0.00 | 0.00 | 73 | 1014.0 |
| 20260504020954 | 53 | 195 | 0.0 | 0.0 | 0.00 | 0.00 | 0.00 | 72 | 1014.0 |
| 20260504020450 | 53 | 195 | 0.0 | 0.0 | 0.00 | 0.00 | 0.00 | 71 | 1013.9 |
| 20260504015947 | 53 | 195 | 0.0 | 0.0 | 0.00 | 0.00 | 0.00 | 71 | 1013.8 |
| 20260504015444 | 54 | 195 | 0.0 | 0.0 | 0.00 | 0.00 | 0.00 | 70 | 1013.8 |
| 20260504014939 | 54 | 195 | 0.0 | 0.0 | 0.00 | 0.00 | 0.00 | 69 | 1013.8 |
| 20260504014436 | 54 | 195 | 0.0 | 0.0 | 0.00 | 0.00 | 0.00 | 68 | 1013.7 |
| 20260504013933 | 54 | 195 | 0.0 | 0.0 | 0.00 | 0.00 | 0.00 | 68 | 1013.6 |
| 20260504013431 | 55 | 195 | 0.0 | 0.0 | 0.00 | 0.00 | 0.00 | 67 | 1013.3 |
| 20260504012927 | 55 | 195 | 0.0 | 0.0 | 0.00 | 0.00 | 0.00 | 66 | 1013.4 |
| 20260504012425 | 56 | 195 | 0.0 | 0.0 | 0.00 | 0.00 | 0.00 | 65 | 1013.2 |
| 20260504011922 | 56 | 195 | 0.0 | 0.0 | 0.00 | 0.00 | 0.00 | 64 | 1013.0 |
| 20260504011419 | 56 | 195 | 0.0 | 0.0 | 0.00 | 0.00 | 0.00 | 63 | 1013.1 |
| 20260504010915 | 56 | 195 | 0.0 | 0.0 | 0.00 | 0.00 | 0.00 | 63 | 1013.2 |
| 20260504010411 | 57 | 196 | 0.0 | 0.0 | 0.00 | 0.00 | 0.00 | 62 | 1013.0 |
| 20260504005907 | 57 | 196 | 0.0 | 0.0 | 0.00 | 0.00 | 0.00 | 59 | 1013.0 |
| 20260504005404 | 58 | 196 | 0.0 | 0.0 | 0.00 | 0.00 | 0.00 | 58 | 1013.1 |
| 20260504004902 | 59 | 196 | 0.0 | 0.0 | 0.00 | 0.00 | 0.00 | 58 | 1013.1 |
| 20260504004400 | 59 | 196 | 0.0 | 0.0 | 0.00 | 0.00 | 0.00 | 56 | 1013.1 |
| 20260504003855 | 60 | 196 | 0.0 | 0.0 | 0.00 | 0.00 | 0.00 | 54 | 1013.0 |
| 20260504003352 | 61 | 197 | 0.0 | 0.0 | 0.00 | 0.00 | 0.00 | 52 | 1013.0 |
| 20260504002849 | 62 | 197 | 0.0 | 0.0 | 0.00 | 0.00 | 0.00 | 49 | 1012.9 |
| 20260504002346 | 63 | 206 | 0.0 | 0.0 | 0.00 | 0.00 | 0.00 | 48 | 1013.1 |
| 20260504001843 | 63 | 206 | 0.0 | 0.0 | 0.00 | 0.00 | 0.00 | 45 | 1013.3 |
| 20260504001340 | 64 | 204 | 0.0 | 0.0 | 0.00 | 0.00 | 0.00 | 44 | 1013.2 |
| 20260504000837 | 64 | 209 | 0.0 | 0.0 | 0.00 | 0.00 | 0.00 | 43 | 1013.5 |
| 20260504000334 | 65 | 270 | 1.0 | 1.0 | 0.00 | 0.00 | 0.00 | 42 | 1013.2 |
| 20260503235832 | 65 | 188 | 0.0 | 0.0 | 0.00 | 0.00 | 0.00 | 42 | 1013.4 |
| 20260503235329 | 66 | 218 | 1.0 | 1.0 | 0.00 | 0.00 | 0.00 | 42 | 1013.3 |
| 20260503234827 | 67 | 340 | 1.0 | 2.0 | 0.00 | 0.00 | 0.00 | 40 | 1013.5 |
| 20260503234324 | 67 | 355 | 0.0 | 0.0 | 0.00 | 0.00 | 0.00 | 41 | 1013.5 |
| 20260503233822 | 68 | 75 | 1.0 | 2.0 | 0.00 | 0.00 | 0.00 | 39 | 1013.5 |
| 20260503233317 | 69 | 226 | 0.0 | 0.0 | 0.00 | 0.00 | 0.00 | 38 | 1013.4 |
| 20260503232814 | 69 | 209 | 1.0 | 1.0 | 0.00 | 0.00 | 0.00 | 37 | 1013.5 |
| 20260503232312 | 68 | 180 | 1.0 | 1.0 | 0.00 | 0.00 | 0.00 | 38 | 1013.5 |
| 20260503231810 | 67 | 241 | 0.0 | 0.0 | 0.00 | 0.00 | 0.00 | 39 | 1013.6 |
| 20260503231306 | 69 | 275 | 1.0 | 2.0 | 0.00 | 0.00 | 0.00 | 38 | 1013.7 |
| 20260503230802 | 69 | 181 | 1.0 | 2.0 | 0.00 | 0.00 | 0.00 | 36 | 1013.8 |
| 20260503230300 | 69 | 225 | 1.0 | 1.0 | 0.00 | 0.00 | 0.00 | 37 | 1013.6 |
| 20260503225757 | 69 | 215 | 0.0 | 1.0 | 0.00 | 0.00 | 0.00 | 37 | 1013.7 |
| 20260503225252 | 69 | 273 | 1.0 | 2.0 | 0.00 | 0.00 | 0.00 | 37 | 1014.0 |
| 20260503224749 | 68 | 195 | 3.0 | 5.0 | 0.00 | 0.00 | 0.00 | 37 | 1013.8 |
| 20260503224247 | 68 | 343 | 2.0 | 2.0 | 0.00 | 0.00 | 0.00 | 37 | 1013.7 |
| 20260503223744 | 68 | 209 | 1.0 | 1.0 | 0.00 | 0.00 | 0.00 | 37 | 1013.8 |
| 20260503223242 | 69 | 264 | 2.0 | 3.0 | 0.00 | 0.00 | 0.00 | 35 | 1013.7 |
| 20260503222738 | 70 | 253 | 2.0 | 2.0 | 0.00 | 0.00 | 0.00 | 37 | 1013.9 |
| 20260503222236 | 70 | 226 | 1.0 | 2.0 | 0.00 | 0.00 | 0.00 | 38 | 1013.8 |
| 20260503221734 | 70 | 239 | 2.0 | 2.0 | 0.00 | 0.00 | 0.00 | 38 | 1014.1 |
| 20260503221231 | 70 | 305 | 2.0 | 2.0 | 0.00 | 0.00 | 0.00 | 36 | 1014.0 |
| 20260503220727 | 70 | 285 | 0.0 | 1.0 | 0.00 | 0.00 | 0.00 | 37 | 1014.2 |
| 20260503220225 | 70 | 264 | 1.0 | 1.0 | 0.00 | 0.00 | 0.00 | 37 | 1014.1 |
| 20260503215721 | 70 | 294 | 1.0 | 2.0 | 0.00 | 0.00 | 0.00 | 36 | 1014.1 |
| 20260503215219 | 69 | 217 | 1.0 | 1.0 | 0.00 | 0.00 | 0.00 | 38 | 1014.2 |
| 20260503214717 | 70 | 320 | 1.0 | 2.0 | 0.00 | 0.00 | 0.00 | 38 | 1014.3 |
| 20260503214213 | 70 | 193 | 3.0 | 5.0 | 0.00 | 0.00 | 0.00 | 38 | 1014.1 |
| 20260503213711 | 69 | 158 | 5.0 | 6.0 | 0.00 | 0.00 | 0.00 | 36 | 1014.3 |
| 20260503213208 | 69 | 280 | 1.0 | 2.0 | 0.00 | 0.00 | 0.00 | 36 | 1014.5 |
| 20260503212705 | 70 | 318 | 2.0 | 3.0 | 0.00 | 0.00 | 0.00 | 38 | 1014.4 |
| 20260503212203 | 70 | 241 | 2.0 | 2.0 | 0.00 | 0.00 | 0.00 | 37 | 1014.5 |
| 20260503211700 | 70 | 324 | 2.0 | 5.0 | 0.00 | 0.00 | 0.00 | 37 | 1014.8 |
| 20260503211155 | 70 | 295 | 2.0 | 2.0 | 0.00 | 0.00 | 0.00 | 39 | 1014.6 |
| 20260503210652 | 70 | 311 | 3.0 | 6.0 | 0.00 | 0.00 | 0.00 | 38 | 1014.7 |
| 20260503210149 | 71 | 310 | 3.0 | 5.0 | 0.00 | 0.00 | 0.00 | 38 | 1014.6 |
| 20260503205644 | 69 | 229 | 0.0 | 0.0 | 0.00 | 0.00 | 0.00 | 39 | 1014.8 |
| 20260503205141 | 70 | 299 | 2.0 | 2.0 | 0.00 | 0.00 | 0.00 | 38 | 1014.8 |
| 20260503204637 | 69 | 215 | 0.0 | 0.0 | 0.00 | 0.00 | 0.00 | 41 | 1014.8 |
| 20260503204135 | 71 | 179 | 2.0 | 2.0 | 0.00 | 0.00 | 0.00 | 38 | 1015.0 |
| 20260503203632 | 69 | 27 | 3.0 | 3.0 | 0.00 | 0.00 | 0.00 | 38 | 1014.9 |
| 20260503203130 | 69 | 317 | 1.0 | 1.0 | 0.00 | 0.00 | 0.00 | 39 | 1015.2 |
| 20260503202627 | 69 | 204 | 1.0 | 1.0 | 0.00 | 0.00 | 0.00 | 39 | 1015.3 |
| 20260503202125 | 70 | 296 | 3.0 | 3.0 | 0.00 | 0.00 | 0.00 | 39 | 1015.3 |
| 20260503201623 | 70 | 175 | 0.0 | 0.0 | 0.00 | 0.00 | 0.00 | 38 | 1015.3 |
| 20260503201120 | 69 | 250 | 0.0 | 1.0 | 0.00 | 0.00 | 0.00 | 40 | 1015.5 |
| 20260503200616 | 69 | 239 | 2.0 | 3.0 | 0.00 | 0.00 | 0.00 | 40 | 1015.5 |
| 20260503200112 | 69 | 206 | 2.0 | 3.0 | 0.00 | 0.00 | 0.00 | 36 | 1015.6 |
| 20260503195609 | 69 | 3 | 1.0 | 3.0 | 0.00 | 0.00 | 0.00 | 36 | 1015.7 |
| 20260503195106 | 69 | 311 | 3.0 | 5.0 | 0.00 | 0.00 | 0.00 | 37 | 1016.0 |
| 20260503194603 | 68 | 244 | 0.0 | 0.0 | 0.00 | 0.00 | 0.00 | 41 | 1016.0 |
| 20260503194058 | 68 | 219 | 4.0 | 6.0 | 0.00 | 0.00 | 0.00 | 41 | 1016.0 |
| 20260503193555 | 68 | 215 | 0.0 | 0.0 | 0.00 | 0.00 | 0.00 | 44 | 1016.5 |
| 20260503193050 | 67 | 225 | 0.0 | 0.0 | 0.00 | 0.00 | 0.00 | 44 | 1016.6 |
| 20260503192547 | 68 | 193 | 3.0 | 5.0 | 0.00 | 0.00 | 0.00 | 41 | 1016.4 |
| 20260503192043 | 68 | 252 | 0.0 | 0.0 | 0.00 | 0.00 | 0.00 | 41 | 1016.6 |
| 20260503191539 | 67 | 90 | 1.0 | 2.0 | 0.00 | 0.00 | 0.00 | 41 | 1016.6 |
| 20260503191036 | 68 | 336 | 1.0 | 2.0 | 0.00 | 0.00 | 0.00 | 39 | 1016.8 |
| 20260503190533 | 68 | 90 | 3.0 | 5.0 | 0.00 | 0.00 | 0.00 | 42 | 1016.6 |
| 20260503190031 | 68 | 336 | 4.0 | 5.0 | 0.00 | 0.00 | 0.00 | 40 | 1016.9 |
| 20260503185527 | 68 | 30 | 0.0 | 1.0 | 0.00 | 0.00 | 0.00 | 43 | 1017.0 |
| 20260503185027 | 67 | 216 | 0.0 | 0.0 | 0.00 | 0.00 | 0.00 | 44 | 1017.0 |
| 20260503184523 | 67 | 276 | 0.0 | 0.0 | 0.00 | 0.00 | 0.00 | 45 | 1017.1 |
| 20260503184020 | 66 | 201 | 1.0 | 1.0 | 0.00 | 0.00 | 0.00 | 49 | 1016.9 |
| 20260503183516 | 66 | 170 | 3.0 | 3.0 | 0.00 | 0.00 | 0.00 | 47 | 1017.0 |
| 20260503183013 | 66 | 299 | 2.0 | 2.0 | 0.00 | 0.00 | 0.00 | 48 | 1017.1 |
| 20260503182512 | 67 | 279 | 3.0 | 5.0 | 0.00 | 0.00 | 0.00 | 49 | 1017.1 |
| 20260503182009 | 67 | 232 | 1.0 | 2.0 | 0.00 | 0.00 | 0.00 | 47 | 1017.3 |
| 20260503181506 | 66 | 310 | 2.0 | 2.0 | 0.00 | 0.00 | 0.00 | 47 | 1017.3 |
| 20260503181002 | 66 | 228 | 0.0 | 0.0 | 0.00 | 0.00 | 0.00 | 46 | 1017.4 |
| 20260503180500 | 66 | 321 | 1.0 | 1.0 | 0.00 | 0.00 | 0.00 | 47 | 1017.2 |
| 20260503175957 | 65 | 185 | 2.0 | 2.0 | 0.00 | 0.00 | 0.00 | 45 | 1017.4 |
| 20260503175455 | 66 | 242 | 3.0 | 6.0 | 0.00 | 0.00 | 0.00 | 46 | 1017.4 |
| 20260503174951 | 65 | 214 | 0.0 | 0.0 | 0.00 | 0.00 | 0.00 | 49 | 1017.4 |
| 20260503174449 | 66 | 217 | 0.0 | 1.0 | 0.00 | 0.00 | 0.00 | 47 | 1017.6 |
| 20260503173944 | 65 | 185 | 3.0 | 3.0 | 0.00 | 0.00 | 0.00 | 50 | 1017.4 |
| 20260503173440 | 65 | 200 | 1.0 | 1.0 | 0.00 | 0.00 | 0.00 | 50 | 1017.8 |
| 20260503172937 | 65 | 217 | 1.0 | 2.0 | 0.00 | 0.00 | 0.00 | 51 | 1017.8 |
| 20260503172434 | 65 | 26 | 1.0 | 1.0 | 0.00 | 0.00 | 0.00 | 49 | 1017.7 |
| 20260503171931 | 65 | 339 | 1.0 | 1.0 | 0.00 | 0.00 | 0.00 | 49 | 1017.8 |
| 20260503171427 | 65 | 215 | 4.0 | 8.0 | 0.00 | 0.00 | 0.00 | 51 | 1018.0 |
| 20260503170925 | 66 | 175 | 2.0 | 5.0 | 0.00 | 0.00 | 0.00 | 48 | 1017.9 |
| 20260503170421 | 65 | 195 | 1.0 | 2.0 | 0.00 | 0.00 | 0.00 | 51 | 1017.9 |
| 20260503150814 | 57 | 61 | 0.0 | 0.0 | 0.00 | 0.00 | 0.00 | 64 | 1018.9 |
| 20260503150309 | 57 | 53 | 1.0 | 1.0 | 0.00 | 0.00 | 0.00 | 64 | 1018.6 |
| 20260503140234 | 54 | 51 | 0.0 | 0.0 | 0.00 | 0.00 | 0.00 | 73 | 1018.7 |